Wind_Speed
30 29 27 25 25 26 29 32 33 33 34 35 36 37 37 37 37 39 40 40 39 38 38 38 37 36 36 35 33 32 31 30 29 28 27 25 23 21 21 20 17 11 9 10 13 13 13 13 13 16 18 18 18 18 19 20 21 24 26 27 29 30 31
29 30 28 26 26 26 27 30 33 33 34 35 37 36 35 35 37 40 39 37 37 37 34 34 35 35 34 34 33 33 32 30 30 29 26 25 24 21 21 22 20 14 11 11 12 13 14 13 14 15 16 16 17 19 19 21 23 22 23 25 26 27 28
28 29 28 26 25 25 26 28 32 33 34 36 37 36 36 36 38 41 38 35 36 36 34 32 32 32 32 33 33 33 32 31 31 30 28 27 26 23 22 22 21 18 13 12 12 13 14 14 14 15 15 16 18 20 21 23 23 22 22 24 25 25 26
26 26 26 24 24 25 25 27 30 32 34 36 37 36 36 36 38 39 38 36 36 36 36 34 33 32 32 32 33 33 32 31 32 31 29 29 28 25 24 24 23 21 17 14 14 14 15 16 16 15 16 17 18 19 21 23 22 21 22 24 24 24 25
26 25 24 24 25 26 26 27 30 31 33 36 36 34 34 35 36 37 37 37 36 36 37 36 34 33 33 32 32 33 33 32 32 32 30 28 27 26 26 25 24 22 19 17 18 18 17 18 18 18 17 16 17 18 21 22 21 20 21 22 23 22 22
26 25 25 26 27 27 28 28 29 31 33 35 35 34 33 35 35 35 35 36 36 36 36 36 35 34 35 34 33 34 34 33 32 33 31 29 29 28 27 24 22 19 17 17 20 20 18 19 20 19 17 15 15 19 22 21 19 18 18 19 19 19 19
27 26 26 26 27 27 28 28 28 31 33 33 33 34 33 34 34 33 33 33 34 34 34 35 35 34 35 36 34 34 33 31 31 31 31 32 32 30 27 24 21 18 16 16 18 19 19 20 20 19 17 15 15 18 20 19 18 17 16 16 18 19 21
28 28 26 25 25 25 26 27 28 30 32 32 33 33 33 33 32 31 29 29 31 32 33 33 34 35 35 35 35 35 33 32 31 31 30 31 31 28 26 24 20 17 15 15 16 17 18 19 19 19 18 17 15 15 17 16 17 18 19 20 20 21 23
29 29 27 25 25 25 25 27 29 30 32 32 33 33 33 32 31 30 28 28 28 30 31 32 32 33 34 34 34 35 33 32 31 31 31 31 30 28 26 24 21 16 14 13 14 15 17 18 18 18 18 17 15 15 15 15 17 21 22 23 24 24 23
28 28 27 26 26 25 25 27 29 30 32 33 33 33 32 31 30 29 28 28 28 28 29 30 31 32 34 34 34 33 32 31 31 31 31 30 30 29 27 26 21 14 11 12 13 15 16 14 14 18 20 20 18 16 16 17 19 22 22 22 24 24 22
28 28 28 26 26 25 25 27 29 29 29 30 32 33 33 31 29 29 29 29 28 29 29 29 30 31 31 32 32 31 30 28 28 28 27 28 28 28 28 28 23 15 12 13 13 15 16 14 15 18 20 18 16 15 17 20 21 23 24 22 20 18 16
29 30 28 25 24 24 25 27 29 27 27 28 30 33 33 31 28 29 31 30 28 29 31 30 29 29 29 30 30 30 28 26 24 23 23 24 24 24 25 26 24 20 17 17 16 14 14 13 12 12 12 11 13 18 21 23 23 21 22 22 20 19 19
28 30 28 25 24 25 25 26 26 25 26 28 30 31 32 31 29 29 32 31 29 29 30 31 29 27 27 28 28 27 27 26 24 22 22 21 21 22 22 23 23 22 21 21 17 11 10 11 10 11 12 13 17 21 22 21 20 17 17 21 21 22 24
27 28 27 26 25 25 25 24 24 24 26 28 29 30 31 31 29 29 30 30 30 31 30 31 30 28 26 27 27 26 26 27 26 24 22 22 22 22 22 22 21 20 20 20 15 11 13 16 17 18 20 21 22 24 23 19 17 15 17 21 23 25 27
26 26 27 27 25 23 23 23 22 23 25 27 28 29 29 29 28 28 28 29 30 30 30 30 30 29 27 27 27 27 27 28 28 26 24 23 23 23 23 22 20 19 19 20 19 19 20 21 21 22 22 22 21 21 21 20 21 23 25 26 27 26 25
26 25 27 27 24 21 21 21 21 22 25 25 26 27 26 27 27 27 26 26 27 28 28 28 29 28 26 26 27 28 26 26 27 26 25 25 24 23 22 22 21 20 20 20 21 21 20 19 19 19 18 19 19 20 23 25 29 31 28 22 20 19 16
26 26 26 25 22 20 20 21 20 21 23 23 25 25 22 24 27 26 25 25 26 28 27 27 28 28 25 25 27 28 25 23 23 25 25 25 24 22 21 20 19 18 17 15 16 18 18 18 18 19 21 24 26 27 28 26 24 23 18 12 11 11 10
26 26 25 23 21 19 19 20 20 20 21 22 24 24 21 23 26 25 24 24 25 26 26 25 25 26 26 26 27 27 24 21 22 24 25 24 21 19 18 18 17 16 16 15 16 19 20 21 22 24 27 28 29 29 27 22 21 20 15 12 10 9 10
24 25 24 21 20 18 17 19 19 18 19 21 23 23 20 22 25 24 23 23 23 23 24 23 22 23 26 27 26 24 22 22 23 24 23 22 20 17 17 17 16 15 15 16 17 19 21 22 23 24 26 26 25 24 21 20 21 21 16 13 11 10 10
23 23 21 19 18 16 16 18 17 17 19 20 22 22 20 23 24 23 23 24 24 23 22 22 22 23 25 26 24 22 21 22 23 23 22 22 20 18 16 15 14 14 14 15 16 18 20 22 23 22 22 21 19 17 15 15 16 17 17 14 11 11 10
20 19 17 16 16 15 15 16 16 17 18 18 20 21 21 23 24 23 24 25 24 24 23 23 24 24 23 24 22 21 21 22 22 22 22 21 19 17 16 14 13 12 13 14 15 18 20 21 20 19 17 16 14 12 11 12 12 14 17 17 16 15 12
16 16 14 13 13 13 14 15 16 16 16 17 19 21 22 24 24 24 26 26 24 23 23 24 26 26 24 23 21 21 21 20 19 20 20 19 15 13 14 13 11 11 12 13 14 17 18 17 15 15 14 14 14 13 12 12 11 11 14 17 20 21 19
11 13 11 10 10 11 12 13 14 15 15 16 17 19 21 23 25 26 28 28 26 26 24 24 26 27 25 22 21 20 20 19 18 18 17 15 13 13 14 12 10 11 11 12 13 14 14 13 12 13 14 15 15 15 14 14 13 12 13 15 18 21 24
9 9 8 7 7 8 10 12 14 15 15 15 16 18 19 22 25 27 28 28 28 28 27 26 26 26 24 22 21 20 20 19 19 17 15 14 15 15 14 11 10 10 10 10 10 10 11 11 10 12 14 14 15 15 15 15 15 13 12 13 16 18 20
7 7 7 5 5 8 10 13 15 15 15 15 16 17 18 21 27 29 29 27 27 27 27 26 24 24 23 21 21 21 19 19 18 17 16 17 17 15 12 10 9 8 7 7 7 8 9 9 10 10 11 12 13 14 15 16 16 15 12 12 16 18 18
6 6 6 5 5 7 10 12 15 17 16 16 16 16 17 20 27 30 28 26 26 26 25 24 24 24 23 21 21 22 22 21 19 18 17 17 15 13 11 9 7 6 5 5 4 6 7 8 9 9 9 11 12 13 15 17 18 18 17 16 19 21 22
5 4 5 5 6 7 10 13 15 16 16 16 16 15 16 19 25 30 28 25 25 25 24 24 24 23 22 22 23 25 24 22 20 18 16 13 11 10 8 6 5 5 4 2 2 4 6 7 7 8 10 11 12 14 16 16 17 18 19 20 20 20 22
5 5 6 6 7 7 8 11 15 16 17 18 18 17 16 16 22 29 28 25 25 26 25 24 25 25 25 27 27 26 23 21 19 15 12 10 9 7 6 6 6 4 2 0 2 3 5 5 6 8 11 12 13 15 16 16 17 17 18 19 17 14 16
8 7 8 8 9 8 7 10 14 18 19 21 21 20 19 17 19 26 29 27 27 28 27 26 27 26 26 26 26 23 21 19 17 14 11 9 8 7 7 7 5 3 2 0 1 3 4 5 7 9 11 13 14 15 17 18 18 18 18 18 15 11 12
10 8 7 8 11 11 10 11 12 14 16 18 18 19 19 17 18 25 29 30 31 31 28 25 24 22 22 23 22 20 20 19 17 15 13 11 10 8 8 7 5 3 2 1 0 2 3 5 7 10 12 14 15 17 18 19 18 17 17 17 15 12 13
9 8 5 6 9 10 10 10 9 8 13 17 16 17 18 16 18 25 31 33 32 29 25 22 20 19 19 20 19 18 20 21 19 18 16 14 12 10 9 8 6 5 4 2 1 1 3 5 8 10 12 13 15 17 19 20 20 19 17 16 15 12 13
8 8 5 4 7 8 9 9 8 8 12 16 16 17 18 18 21 27 32 34 32 26 21 20 20 18 17 19 20 20 22 22 21 19 18 16 14 12 11 9 7 6 5 3 1 1 3 5 7 9 11 12 15 17 18 20 22 22 20 19 18 17 16
9 8 6 3 4 7 7 8 10 11 13 15 17 18 19 20 23 29 32 32 29 24 19 20 20 18 19 21 23 23 23 22 21 19 17 15 14 13 12 10 9 7 5 4 2 2 3 4 7 8 9 12 14 16 17 18 19 21 22 21 19 20 21
12 9 6 4 2 7 8 9 10 12 13 15 17 19 20 21 25 29 30 29 27 23 20 19 18 17 19 22 23 24 24 22 21 19 16 15 14 12 12 11 10 7 6 4 3 3 3 4 6 7 9 12 15 16 16 18 19 20 21 20 19 19 20
15 13 8 5 1 6 9 10 10 12 14 16 17 20 22 23 24 25 24 22 22 22 21 21 20 19 21 23 24 24 24 23 21 20 18 16 16 15 14 12 10 8 7 5 4 3 3 4 6 8 10 12 15 16 16 17 18 19 18 19 19 19 19
15 15 9 4 1 6 10 10 10 12 14 16 18 21 23 22 22 21 19 17 17 18 19 20 21 22 24 25 24 23 23 22 21 20 18 17 16 16 15 13 11 9 8 6 4 4 3 4 6 7 10 11 13 14 14 15 17 17 17 17 19 18 18
Wind_Direction
292 291 288 283 276 264 253 248 243 237 231 228 227 226 225 223 219 216 214 212 210 210 211 211 210 210 212 212 211 211 211 212 213 214 214 212 210 208 207 208 214 229 245 239 237 244 249 252 260 269 273 276 279 281 282 282 285 291 296 298 299 299 302
289 290 288 283 277 266 253 247 243 237 231 228 225 224 222 220 216 212 210 209 208 208 209 208 208 209 211 211 211 211 210 211 211 211 210 209 209 209 208 210 215 225 239 243 241 245 251 254 257 261 263 266 272 277 279 282 286 288 290 293 294 292 295
286 288 286 279 273 266 253 246 242 237 232 228 224 221 219 217 213 209 206 205 206 206 206 206 207 207 207 208 209 209 210 211 212 211 210 211 211 210 211 214 217 223 234 244 247 248 253 258 258 257 259 264 270 275 278 280 283 285 286 288 289 287 288
286 285 281 274 268 264 255 247 242 237 231 228 225 221 218 216 213 209 207 205 205 204 204 205 205 205 204 204 205 206 208 211 212 211 211 212 212 211 214 217 220 224 230 242 253 255 256 263 265 262 264 270 272 274 278 280 280 282 284 285 286 286 284
288 283 277 271 267 264 258 252 245 237 232 229 225 221 217 214 212 210 208 207 206 204 203 204 204 204 203 203 204 204 206 209 210 210 210 210 211 212 215 218 222 225 228 240 253 261 263 266 269 269 269 267 268 276 283 282 278 278 281 282 282 281 282
288 283 277 273 269 265 262 257 248 239 234 229 224 220 216 213 212 211 209 208 207 205 205 204 204 204 204 204 204 204 207 209 210 211 211 210 211 213 215 216 218 221 226 238 250 260 266 269 272 274 270 263 263 276 284 283 278 277 276 277 279 279 281
287 283 278 273 270 266 262 258 250 241 235 230 224 219 215 212 211 212 210 208 207 206 206 206 205 205 205 206 205 205 207 207 208 210 212 213 214 215 215 214 215 217 223 236 248 258 265 270 273 273 271 271 272 274 278 281 283 281 277 277 280 282 285
285 283 279 274 269 266 262 257 250 242 234 228 224 218 214 211 210 210 209 208 208 207 207 208 207 207 207 207 208 209 209 208 208 209 211 214 215 213 212 212 211 213 220 233 246 256 263 270 273 272 275 280 278 274 276 279 281 283 286 287 284 284 285
286 284 280 275 269 265 261 254 248 241 233 226 221 215 212 210 208 207 206 205 205 207 208 208 207 208 209 209 210 212 213 213 213 212 212 214 213 211 211 211 211 211 216 227 241 254 261 265 266 269 278 281 275 275 280 282 283 286 288 290 288 285 284
288 284 278 274 271 267 262 254 248 241 232 224 219 213 209 207 205 203 202 201 201 202 205 206 207 209 210 210 211 213 215 216 217 218 219 220 216 213 211 210 209 208 210 221 238 250 254 256 259 266 275 278 277 280 282 283 287 289 290 292 290 288 287
287 283 277 272 270 269 264 256 249 240 228 220 216 212 208 205 202 200 199 199 199 199 201 203 206 209 209 209 210 211 213 214 215 217 221 223 223 223 221 216 211 207 209 222 236 243 245 249 257 266 272 275 279 283 285 286 287 287 289 291 289 290 292
284 282 278 272 270 269 263 256 248 237 223 218 215 211 206 203 199 197 198 199 199 200 200 200 203 206 208 208 207 208 208 207 207 210 213 217 220 222 225 225 221 219 220 225 231 238 242 245 255 268 270 274 284 287 287 286 282 279 280 282 282 283 286
283 283 280 277 275 272 265 255 246 232 220 217 216 210 203 199 197 196 198 199 199 199 199 200 200 201 204 207 205 205 206 204 203 206 209 211 214 215 219 222 224 227 230 230 230 235 246 255 270 281 277 280 287 285 281 279 275 270 271 274 277 280 283
283 282 279 278 276 274 267 256 243 228 217 216 216 209 201 197 197 197 197 198 199 199 199 199 198 197 201 204 202 200 203 204 203 203 205 209 212 215 217 220 223 227 231 234 238 255 271 275 279 279 278 282 284 279 275 274 273 275 277 277 279 282 283
283 280 278 278 276 272 265 255 241 226 218 216 215 209 200 194 194 195 196 197 200 200 199 198 197 198 199 200 199 199 202 205 204 202 203 207 212 215 218 222 226 230 235 243 255 270 279 282 280 278 279 284 286 282 278 278 281 286 288 286 286 284 279
281 278 278 278 276 270 260 251 239 225 218 215 213 211 201 189 189 193 193 194 198 198 199 198 198 199 198 198 200 199 201 205 206 203 203 209 215 221 225 229 233 237 244 253 262 270 275 275 275 276 279 283 287 289 290 290 290 289 289 288 287 281 271
281 279 277 276 273 266 255 249 239 224 218 214 210 210 200 182 182 188 189 192 195 196 197 198 200 200 198 199 203 202 198 199 204 204 205 209 216 222 229 235 238 241 249 258 263 265 265 266 269 274 277 280 284 288 293 294 289 286 287 284 277 276 275
280 279 277 274 271 264 252 249 243 226 217 214 210 208 197 178 178 184 185 187 189 191 194 196 199 200 199 200 205 204 195 191 197 202 203 206 211 217 225 232 237 243 250 256 258 260 262 266 271 276 280 283 285 287 287 282 273 273 277 273 264 274 290
278 278 276 274 273 265 248 244 241 227 217 213 210 207 193 176 176 180 179 178 178 182 188 191 192 196 201 204 204 200 194 190 193 196 198 198 201 208 218 229 238 246 250 252 256 262 267 272 277 282 285 287 286 286 282 273 268 269 268 264 262 273 289
276 274 275 275 275 266 247 238 233 225 218 212 210 205 188 176 180 180 174 171 170 171 179 185 187 191 199 204 203 196 191 190 191 194 195 194 196 204 218 230 236 240 245 252 260 268 276 283 289 292 291 290 290 288 282 274 271 270 266 263 262 265 264
275 272 272 272 271 262 247 237 229 222 217 211 209 205 189 182 186 180 169 167 169 170 174 180 185 190 194 197 196 192 189 189 189 189 191 195 203 214 224 229 230 234 244 257 267 277 285 291 294 294 294 297 300 302 297 285 276 271 268 263 260 259 251
274 271 269 267 264 255 244 236 228 223 218 211 209 207 195 187 188 180 169 165 168 172 177 181 186 189 190 189 188 187 187 188 187 183 188 199 208 211 214 217 222 231 245 261 274 285 291 295 298 301 309 316 318 322 322 311 299 285 275 268 264 262 257
277 270 268 263 255 245 238 231 227 225 223 214 210 211 202 191 186 181 174 170 172 176 179 182 185 187 186 182 181 183 184 185 182 177 181 187 188 190 198 208 220 232 251 272 284 289 293 300 309 315 321 327 329 332 333 328 324 312 293 283 277 273 270
283 265 256 248 237 229 225 222 221 222 222 216 211 212 207 191 181 180 179 178 179 181 181 182 185 184 180 176 177 180 179 176 172 167 163 167 175 188 199 211 227 246 266 280 284 288 297 310 320 321 324 331 336 339 339 336 335 331 318 303 297 292 290
285 261 246 232 214 211 211 210 211 211 211 212 210 211 209 190 176 177 181 181 181 184 186 187 185 178 172 173 176 174 164 156 153 153 159 171 184 195 208 222 239 256 268 273 280 291 303 317 325 325 332 341 346 348 347 344 345 346 342 329 319 316 315
277 254 236 217 206 208 202 198 203 204 203 205 207 209 210 192 174 174 183 185 185 186 186 184 179 171 169 173 170 158 147 141 145 156 169 182 194 205 217 231 241 243 245 259 285 299 308 322 332 339 350 356 358 1 359 354 353 353 354 351 342 335 334
279 248 225 212 204 203 197 192 196 200 199 200 200 201 204 193 175 171 176 179 178 176 174 172 169 164 162 160 152 146 146 149 157 168 177 186 199 207 212 218 214 209 217 257 319 319 319 330 341 354 7 10 10 10 7 2 359 356 357 357 351 338 334
271 242 234 220 194 186 189 190 195 199 198 196 194 190 191 187 172 166 167 167 164 161 159 156 150 145 145 145 143 144 151 156 162 171 179 186 191 192 189 191 190 179 162 39 345 334 334 343 357 7 13 17 16 12 8 7 6 1 358 359 355 340 327
297 263 245 228 201 186 181 191 204 210 205 198 193 187 183 180 170 163 163 164 159 151 143 138 135 135 138 140 142 145 150 157 163 168 175 183 183 178 179 180 169 137 119 132 335 349 349 356 10 17 17 17 17 14 10 9 7 3 359 358 354 336 321
328 308 265 230 214 206 205 214 225 221 204 194 191 185 179 175 168 161 159 160 156 147 139 135 135 136 139 142 144 148 154 162 169 171 174 177 177 178 178 168 151 144 154 168 352 5 4 10 19 22 19 16 14 14 13 11 6 2 360 358 352 336 329
345 337 309 245 226 218 216 225 232 210 188 185 183 178 172 166 161 157 157 158 153 144 139 139 137 139 146 150 152 158 165 170 174 176 177 176 174 177 174 160 154 166 166 155 147 23 21 26 27 23 21 19 15 13 12 10 6 3 360 357 354 342 331
356 349 336 279 234 218 206 202 199 186 180 179 177 173 168 162 156 154 157 159 153 143 141 146 143 144 152 156 159 166 172 175 177 179 179 177 174 175 171 163 164 167 160 159 152 69 36 35 35 30 25 22 20 18 13 6 3 3 0 358 356 351 344
349 337 332 315 228 212 199 184 178 176 173 173 172 169 164 161 157 153 156 158 151 140 143 153 150 149 156 162 166 171 174 176 179 179 178 177 175 170 165 167 172 166 157 161 150 85 49 43 42 36 32 31 29 25 16 5 1 1 1 359 356 351 349
354 348 340 338 216 191 183 172 171 171 168 168 169 164 159 158 155 153 156 160 154 144 146 153 152 153 159 164 170 173 174 176 178 177 176 174 171 167 166 170 171 163 157 160 147 106 70 53 45 36 34 36 35 29 19 8 3 2 0 358 355 348 346
353 358 355 345 302 168 166 165 166 166 164 165 164 160 157 155 149 144 148 155 153 150 153 155 155 157 163 168 172 175 176 177 176 175 176 174 170 170 173 173 168 164 167 166 147 118 82 60 51 42 39 39 36 31 22 10 5 3 359 356 354 350 345
354 4 15 20 87 152 155 157 161 165 164 163 163 161 158 153 144 139 140 143 145 148 153 156 158 162 167 172 175 176 178 179 176 175 177 176 173 174 176 173 169 170 171 165 147 127 91 66 57 49 46 47 42 36 27 14 7 5 2 358 357 355 351
Height
679 677 676 675 675 674 675 676 676 675 676 676 677 678 680 682 684 685 687 690 694 697 699 700 703 705 708 712 715 717 719 721 724 726 729 731 732 734 735 737 740 740 740 740 741 740 740 739 739 739 738 737 736 736 735 734 733 731 729 728 726 725 723
675 673 672 671 670 670 670 671 671 671 671 671 672 674 676 677 679 680 683 686 689 693 696 697 700 702 705 709 711 714 715 717 720 722 725 727 728 730 731 733 735 737 737 738 738 738 738 738 738 737 736 735 734 733 732 731 730 728 726 725 724 722 720
670 669 668 667 666 666 666 666 666 666 666 667 667 669 671 673 674 676 678 681 684 688 691 694 696 699 702 705 708 710 712 714 716 718 720 722 724 726 728 729 731 733 734 735 736 736 736 736 736 734 734 733 731 730 729 727 726 724 723 722 721 719 716
666 665 664 663 662 661 661 661 661 662 662 662 663 664 666 669 670 672 673 676 679 682 685 688 691 694 698 701 703 705 708 710 712 714 716 718 720 722 724 726 728 729 731 732 733 734 734 734 733 732 731 730 728 727 726 724 722 720 719 718 717 715 713
662 662 660 659 658 657 656 656 656 657 658 658 659 660 662 664 667 668 670 672 674 677 679 682 686 689 693 697 699 701 704 706 708 710 712 714 716 718 720 722 724 726 728 730 731 731 732 732 731 729 728 727 726 724 723 721 719 717 715 714 713 711 709
658 657 656 654 653 652 651 651 651 652 653 654 655 656 657 660 662 665 666 668 671 673 675 677 680 685 688 691 694 696 699 702 704 706 708 710 712 714 716 718 720 723 725 727 728 729 729 729 728 727 724 723 723 722 720 718 716 714 713 712 710 708 706
654 653 651 650 649 648 647 646 646 647 648 650 651 652 653 655 658 661 663 665 668 669 672 674 676 680 683 686 689 692 695 698 701 703 705 707 709 711 713 715 717 719 722 724 726 726 726 726 725 723 721 721 721 719 718 716 713 711 711 710 708 706 704
650 648 647 646 645 644 643 642 642 642 643 645 647 648 649 651 653 657 660 663 665 667 669 671 674 676 679 682 685 689 691 694 697 700 703 705 707 709 710 712 714 716 718 721 722 723 724 723 722 720 718 718 718 716 714 713 712 709 708 707 705 703 702
645 644 642 641 640 639 638 637 636 637 638 640 642 643 645 647 649 653 656 659 662 664 666 669 671 674 676 679 682 685 689 691 694 697 699 702 704 706 708 710 712 713 715 717 719 721 722 721 719 717 716 715 714 713 711 711 710 707 705 703 701 699 698
641 640 638 636 635 634 633 632 631 631 632 634 637 639 641 643 645 648 652 655 657 660 663 666 669 671 673 676 679 683 686 689 692 694 696 699 701 703 705 707 709 711 712 714 716 718 719 718 715 714 714 712 710 710 709 708 707 704 702 701 697 693 693
637 635 633 632 630 629 628 626 625 626 628 630 632 634 636 638 641 644 647 650 653 656 659 663 666 669 671 674 677 680 683 686 689 692 694 697 699 700 702 704 706 707 709 711 713 715 716 715 712 712 712 709 708 708 707 706 705 702 699 699 695 689 687
633 630 628 627 626 624 623 621 621 622 624 626 628 630 631 634 637 640 642 646 649 652 655 659 663 666 669 672 674 677 680 683 686 689 692 695 697 698 700 701 702 704 705 708 710 711 712 711 710 710 709 708 707 706 704 703 701 699 697 695 692 686 683
628 626 624 623 621 620 618 617 617 618 620 622 624 626 627 629 632 635 638 642 645 648 652 655 659 663 666 669 672 674 677 680 684 687 690 692 694 696 698 699 700 701 702 704 706 707 708 709 709 708 707 707 706 704 701 699 696 695 693 690 688 684 680
624 622 620 618 616 615 614 613 613 615 617 618 621 623 624 625 628 632 635 638 642 645 648 652 655 659 663 667 669 672 674 677 681 684 686 689 692 694 695 696 697 698 699 701 703 703 705 706 707 707 705 704 703 700 698 696 693 691 689 686 684 681 678
620 618 615 614 612 611 610 609 610 611 613 615 617 619 621 622 626 629 632 636 639 642 645 648 652 655 659 663 666 669 672 675 677 680 683 686 689 691 692 693 693 695 697 698 700 700 702 703 704 703 702 700 699 697 695 693 690 688 686 683 679 676 673
616 614 611 610 608 607 606 606 606 608 610 612 614 616 618 620 623 627 630 634 637 640 643 646 649 653 656 660 663 666 670 672 675 678 680 683 686 688 689 690 690 693 695 696 698 699 700 700 700 699 698 696 695 694 691 689 687 684 683 680 676 671 667
612 610 608 606 605 604 603 602 603 605 607 609 611 613 615 618 621 625 628 631 634 637 640 643 646 650 654 658 661 664 668 670 672 675 678 681 684 686 687 687 688 691 693 695 696 697 697 697 696 695 694 692 691 689 688 686 683 680 680 678 673 666 662
608 606 604 603 601 601 600 600 600 602 604 606 608 611 613 615 619 623 626 629 632 635 638 641 644 649 653 656 658 662 665 668 670 672 676 679 682 683 684 684 686 689 691 693 693 693 693 693 692 691 689 688 687 685 684 683 679 677 677 675 671 665 660
604 602 600 599 599 598 598 598 598 600 602 604 606 609 611 613 616 620 623 626 630 633 637 640 644 648 651 654 657 660 663 666 668 670 674 677 679 680 681 682 685 687 688 689 690 690 690 689 688 687 686 684 682 681 679 678 675 674 673 670 667 664 662
600 598 597 597 596 596 596 596 597 598 600 603 604 607 608 610 613 616 620 624 628 632 636 640 643 647 650 652 655 658 661 664 665 668 671 674 676 677 679 681 683 685 685 686 687 687 686 685 684 683 681 679 678 677 675 673 672 670 668 666 663 662 662
596 595 594 594 594 594 594 594 595 597 599 601 603 605 607 608 611 614 618 622 626 630 634 638 642 645 648 650 654 656 659 662 663 665 668 670 673 675 677 679 681 682 683 684 684 684 683 682 681 679 678 676 674 673 671 669 667 665 663 662 660 658 658
594 593 592 592 592 592 593 593 594 596 598 600 602 604 605 607 610 613 617 621 625 629 632 636 639 642 646 649 652 655 657 660 662 664 665 668 672 674 675 677 679 680 681 681 681 681 679 679 678 676 674 672 670 669 667 664 663 661 659 658 656 655 653
593 591 591 591 591 591 592 593 594 595 597 599 600 603 604 606 609 612 615 619 623 626 630 633 636 640 644 648 651 653 656 658 660 662 664 667 671 672 673 676 677 678 679 679 678 678 677 676 675 673 671 669 667 665 663 660 658 656 655 653 651 650 647
591 590 590 590 590 591 592 593 593 594 596 598 600 602 604 605 607 611 614 617 620 624 628 631 634 638 642 646 649 652 654 656 658 661 664 667 669 670 672 674 675 676 676 676 676 675 674 673 672 671 669 667 664 662 659 657 655 653 651 650 647 645 642
589 589 589 589 590 591 591 593 594 595 596 598 599 602 604 605 607 610 613 616 619 622 626 629 633 637 641 645 648 650 652 655 657 660 663 665 667 670 672 673 673 674 674 674 674 673 672 672 671 669 667 665 662 660 657 654 652 650 648 646 643 640 638
589 589 589 589 590 590 591 593 594 595 597 598 600 601 603 604 606 609 612 615 617 621 625 628 632 637 640 643 646 648 650 654 657 659 662 664 667 669 670 671 671 672 672 672 672 671 671 671 669 668 666 663 661 659 656 653 650 648 645 643 640 636 633
588 588 588 588 589 590 591 592 593 595 596 598 599 601 602 603 605 608 611 614 617 621 624 628 632 636 639 641 644 646 649 653 656 659 662 664 666 668 668 669 669 670 671 671 670 670 670 669 668 666 664 662 660 657 655 652 649 646 643 640 638 635 631
586 587 587 587 588 589 590 591 592 593 594 596 598 599 600 602 603 606 609 613 616 620 624 628 631 635 637 640 643 646 650 653 656 659 662 664 665 666 667 668 668 669 669 669 669 669 669 668 667 665 663 660 658 656 654 651 648 645 642 640 638 636 632
585 585 585 586 586 587 589 589 589 590 591 594 595 597 598 600 602 604 607 611 615 619 623 627 631 634 637 640 643 647 651 654 656 659 661 663 664 665 666 667 667 667 668 668 669 669 668 667 666 664 661 659 657 655 653 650 647 644 642 640 638 637 634
584 583 583 584 584 585 586 587 587 588 590 592 594 596 597 599 601 603 606 610 613 617 622 627 631 634 637 640 644 647 651 653 656 658 660 662 663 664 665 665 666 666 667 668 668 668 667 666 664 662 660 658 656 653 651 648 646 645 643 640 638 636 633
583 582 581 581 582 583 584 585 586 587 589 591 593 595 597 599 601 603 606 609 612 617 622 626 630 634 638 640 643 647 649 652 655 657 659 660 662 663 664 664 665 666 667 667 668 668 667 665 663 661 659 657 655 652 650 648 646 644 643 641 638 635 632
582 582 581 581 581 582 583 584 585 587 588 590 592 594 596 599 601 604 606 609 612 617 622 626 629 633 637 640 642 646 648 651 653 655 657 659 660 661 662 664 665 666 667 667 667 667 665 664 662 661 659 657 654 652 650 648 646 644 642 639 637 634 631
582 581 580 580 580 581 582 583 584 586 587 589 591 593 596 598 601 603 606 609 612 617 622 626 629 632 635 638 641 644 647 650 652 654 655 657 659 660 662 663 665 666 666 667 667 666 665 663 662 660 659 657 654 652 650 649 647 644 641 639 636 633 630
581 580 580 579 579 581 582 583 584 586 587 589 591 593 596 599 602 605 607 610 613 617 621 626 629 632 635 638 640 643 646 648 650 652 654 656 658 660 661 663 664 665 665 666 666 665 664 663 661 660 658 656 653 652 651 650 647 645 642 640 637 634 630
581 580 579 579 579 581 582 583 585 586 588 590 592 594 596 599 602 605 609 612 615 617 620 624 628 631 634 637 639 642 644 646 648 651 653 655 657 659 661 662 663 664 665 665 665 664 663 662 661 660 658 655 653 652 651 650 648 645 643 641 639 635 632
583 581 580 580 580 581 583 584 586 587 589 590 592 594 596 598 601 605 610 614 616 619 622 624 627 630 633 636 638 641 643 645 648 650 652 654 657 658 660 662 663 664 664 664 664 663 662 661 661 659 658 656 654 653 652 650 648 646 644 642 640 637 634